[Date Prev][Date Next][Thread Prev][Thread Next] - [Date Index][Thread Index][Author Index]

2 Line ISS Keps 3-13



ISS
1 25544U 98067A   05071.97633852  .00022383  00000-0  18065-3 0    11
2 25544 051.6473 033.1030 0003879 182.3097 287.2944 15.70775534360554
----
Via the sarex mailing list at AMSAT.ORG courtesy of AMSAT-NA.
To unsubscribe, send "unsubscribe sarex" to Majordomo@amsat.org



AMSAT Top AMSAT Home